Home   Weather   Farah   Past weeks
Flag for Afghanistan

Past Weather in Farah, Afghanistan — Yesterday and Last 2 Weeks

Now
102 °F

Sunny.


Feels Like: 97 °F
Forecast: 106 / 74 °F
Wind: 24 mph from Northwest

Location: Zabol Airport

Current Time: Jun 19, 2019 at 1:56:20 pm

Latest Report: Jun 19, 2019 at 12:30 pm


Visibility: 10 mi

Pressure: 29.56 "Hg (27.51 "Hg at 658m altitude)

Humidity: 11%

Dew Point: 39 °F

Location of FarahLocation

Past Weather in Farah — Graph

°F

Farah Temperature Yesterday

Maximum temperature yesterday: 106 °F (at 4:30 pm)
Minimum temperature yesterday: 82 °F (at 12:30 am)
Average temperature yesterday: 93 °F

High & Low Weather Summary for the Past Weeks

 TemperatureHumidityPressure
High106 °F (Jun 8, 1:30 pm)53% (Jun 5, 12:30 am)29.86 "Hg (Jun 5, 12:30 am)
Low73 °F (Jun 4, 11:30 pm)8% (Jun 13, 2:30 pm)26.55 "Hg (Jun 15, 9:30 pm)
Average91 °F22%29.68 "Hg
* Reported Jun 4 12:30 pm — Jun 19 12:30 pm, Farah. Weather by CustomWeather, © 2019

Note: Actual official high and low records may vary slightly from our data, if they occured in-between our weather recording intervals... More about our weather records

Advertising

Farah Weather History for the Previous 24 Hours

Scroll right to see more
 ConditionsComfort  
Time TempWeatherWind HumidityBarometerVisibility
12:30 pm
Wed, Jun 19
102 °FSunny.24 mph11%29.56 "Hg10 mi
11:30 am100 °FSunny.29 mph13%29.56 "Hg10 mi
10:30 am97 °FSunny.29 mph14%29.59 "Hg10 mi
9:30 am91 °FSunny.24 mph20%29.59 "Hg10 mi
8:30 am88 °FSunny.22 mph24%29.59 "Hg10 mi
7:30 am86 °FSunny.24 mph24%29.59 "Hg10 mi
6:30 am82 °FSunny.18 mph28%29.59 "Hg10 mi
4:30 am84 °FClear.21 mph23%29.59 "Hg10 mi
1:30 am81 °FClear.12 mph37%29.59 "Hg10 mi
12:30 am81 °FClear.12 mph37%29.59 "Hg10 mi
11:30 pm
Tue, Jun 18
82 °FClear.12 mph28%29.59 "Hg10 mi
10:30 pm86 °FClear.14 mph24%29.59 "Hg10 mi
9:30 pm88 °FClear.9 mph24%29.56 "Hg10 mi
8:30 pm90 °FClear.14 mph24%29.56 "Hg10 mi
7:30 pm95 °FSunny.12 mph20%29.53 "Hg10 mi
6:30 pm100 °FSunny.22 mph15%29.50 "Hg10 mi
5:30 pm104 °FSunny.26 mph11%29.50 "Hg10 mi
4:30 pm106 °FSunny.22 mph11%29.50 "Hg10 mi
3:30 pm104 °FSunny.26 mph11%29.53 "Hg10 mi
2:30 pm104 °FSunny.31 mph12%29.56 "Hg10 mi
1:30 pm102 °FSunny.26 mph12%29.59 "Hg10 mi
Weather by CustomWeather, © 2019

See weather overview